Lexington Weather

Lexington, Massachusetts, USA

29°F
4/1/2020 4:42am 
  • Lexington Conditions: Clear
  • Temperature: 29.3°F / -1.5°C 
  • Dew Point: 27.5°FIncreased 0.2°Fsince last hour.
  • Relative Humidity: 93%Increased 1.0% since last hour.
  • Wind: Calm, 10-min avg: Calm, gust: 1 mph
  • Barometer: 29.87 in Steady
  • Visibility: 10 miles
  • Snow Today: 0.0 in
  •   

Regional Weather Roundup
for Boston / Norton, MA

        
000
ASUS41 KBOX 311804
RWRBOX

REGIONAL WEATHER ROUNDUP
NATIONAL WEATHER SERVICE BOSTON/NORTON MA
200 PM EDT TUE MAR 31 2020

NOTE:  "FAIR" INDICATES FEW OR NO CLOUDS BELOW 12,000 FEET WITH NO 
SIGNIFICANT WEATHER AND/OR OBSTRUCTIONS TO VISIBILITY.

MAZALL-311900-
EASTERN MASSACHUSETTS
  
CITY           SKY/WX    TMP DP  RH WIND       PRES   REMARKS
BOSTON         FAIR      39  30  70 E16       30.04S WCI  30          
6HR MIN TEMP:  34; 6HR MAX TEMP:  40;                                

BEVERLY        FAIR      40  28  62 E10       30.03F                  
LAWRENCE       FAIR      43  28  55 E8        30.04S                  
BEDFORD        FAIR      46  24  42 NE10      30.01S                  
BLUE HILL        N/A     40  28  62 E12G17    30.00R                  
NORWOOD        FAIR      43  27  53 VRB6      30.03S                  
MARSHFIELD     CLOUDY    39  28  65 VRB7G15   30.04S                  
PLYMOUTH       CLOUDY    38  28  67 N14       30.03R WCI  30          
TAUNTON        PTSUNNY   41  26  55 NE8       30.03R                  
NEW BEDFORD    PTSUNNY   42  27  55 N8        30.02R                  
$$

MAZALL-311900-
CAPE COD AND THE ISLANDS
  
CITY           SKY/WX    TMP DP  RH WIND       PRES   REMARKS
FALMOUTH       CLOUDY    37  28  70 N12G21    30.02R WCI  30          
HYANNIS        CLOUDY    40  28  62 N15G22    30.00R WCI  32          
CHATHAM        CLOUDY    38  27  64 NE9G18    30.02R WCI  31          
PROVINCETOWN   CLOUDY    37  28  70 NE13G18   30.04R WCI  29          
NANTUCKET      CLOUDY    41  28  60 N21       30.01R WCI  32          
MARTHAS VNYRD  CLOUDY    41  28  60 N14       30.02R                  
$$
 
MAZALL-311900-
CENTRAL AND WESTERN MASSACHUSETTS
  
CITY           SKY/WX    TMP DP  RH WIND       PRES   REMARKS
WORCESTER      PTSUNNY   41  28  60 MISG      30.00R                  
6HR MIN TEMP:  31; 6HR MAX TEMP:  41;                                

FITCHBURG      FAIR      46  25  43 N9        30.01F                  
ORANGE         CLOUDY    43  31  62 NE6       30.02F                  
SPRINGFIELD    PTSUNNY   46  30  54 CALM      30.00F                  
WESTFIELD      PTSUNNY   46  29  51 VRB3      30.01F                  
NORTH ADAMS    CLOUDY    43  30  60 CALM      30.00S                  
PITTSFIELD     CLOUDY    42  30  62 CALM      29.97F                  
$$
 
RIZALL-311900-
RHODE ISLAND
  
CITY           SKY/WX    TMP DP  RH WIND       PRES   REMARKS
PROVIDENCE     FAIR      46  28  49 N5        30.03R                  
6HR MIN TEMP:  37; 6HR MAX TEMP:  46;                                

NEWPORT        FAIR      45  27  49 N12       30.02S                  
BLOCK ISLAND   FAIR      41  29  62 E7        30.04R                  
SMITHFIELD     FAIR      43  26  51 VRB3      30.01S                  
WESTERLY       PTSUNNY   45  29  53 S9        30.03R                  
$$
 
CTZALL-311900-
CONNECTICUT
  
CITY           SKY/WX    TMP DP  RH WIND       PRES   REMARKS
BRADLEY INTL   PTSUNNY   47  27  45 VRB3      30.01F                  
6HR MIN TEMP:  36; 6HR MAX TEMP:  49;                                

HARTFORD       PTSUNNY   47  30  51 MISG      30.02F                  
BRIDGEPORT     CLOUDY    44  33  65 SE10      30.02F                  
DANBURY        CLOUDY    44  32  62 CALM      30.01F                  
GROTON         PTSUNNY   41  32  70 S10       30.03R                  
NEW HAVEN      CLOUDY    45  35  68 S9        30.02F                  
CHESTER        CLOUDY    46  27  46 CALM      30.01S                  
MERIDEN        CLOUDY    47  29  49 E6        30.02F                  
WILLIMANTIC    FAIR      47  28  47 E6        30.01S                  
OXFORD         CLOUDY    42  32  67 CALM      30.01F                  
$$

MEZ002-015-021-024-NHZ003-005-008-011-012-014-VTZ005-008-311900-
NORTHERN NEW ENGLAND
  
CITY           SKY/WX    TMP DP  RH WIND       PRES   REMARKS
PORTLAND ME    FAIR      43  26  51 N12G18    30.02F                  
6HR MIN TEMP:  33; 6HR MAX TEMP:  43;                                

BANGOR ME      PTSUNNY   41  25  53 N13       30.03F                  
CONCORD NH     FAIR      47  23  38 NW10      30.00F                  
MANCHESTER NH  FAIR      46  24  42 N7        30.00F                  
NASHUA NH      FAIR      45  26  47 VRB7      30.02S                  
PORTSMOUTH NH  MOSUNNY   41  26  56 E6        30.01F                  
JAFFREY NH     PTSUNNY   42  31  64 VRB6      29.99F                  
KEENE NH       CLOUDY    41  31  67 VRB7      30.02F                  
BURLINGTON VT  FAIR      48  28  46 NW17G25   30.03F                  
MT. WASHINGTON MOSUNNY   21   7  53 N9          N/A  WCI  11          
$$

NYZ052-076-311900-
EASTERN NEW YORK
  
CITY           SKY/WX    TMP DP  RH WIND       PRES   REMARKS
ALBANY         CLOUDY    46  34  62 N7        30.02F                  
6HR MIN TEMP:  40; 6HR MAX TEMP:  47; 6HR PCP: TRACE;                

NEW YORK CITY  PTSUNNY   46  34  62 NE6       30.01F                  
6HR MIN TEMP:  41; 6HR MAX TEMP:  47; 6HR PCP: TRACE;                

$$
 
ANZALL-311900-
MARINE OBSERVATIONS
  
STATION/POSITION TIME  TEMP    WIND        PRES    VSBY  WAVE
                       AIR SEA DIR/SP/G                  HT/PER
                 (UTC) (F)     (DEG/KT/KT) (MB)    (MI)  (FT/S)
BOSTON BUOY      1750   35 42   40/ 14/ 17 1017.0R         7/ 9
BUZZARDS BAY     1700           20/ 10/ 13 1017.4S
NANTUCKET SOUND  1740                        N/A           2/ 4
MASS BAY-STELLWA 1704   35 42   50/ 17/ 21 1015.3F  1 7/8  9/11
ISLE OF SHOALS   1700   33      40/ 18/ 20 1016.6F
S OF BLOCK IS    1730      43                N/A           5/10
$$

......................KEY.........................
  SKY/WX - SKY CONDITION/PRESENT WEATHER
  TMP    - TEMPERATURE IN FAHRENHEIT
  DWPT   - DEWPOINT IN FAHRENHEIT
  RH     - RELATIVE HUMIDITY IN PERCENT
  WIND   - DIRECTION AND SPEED IN MPH
  PRES   - MEAN SEA LEVEL PRESSURE IN INCHES OF HG
  WCI    - WIND CHILL INDEX
  VSB    - VISIBILITY IN MILES
  HX     - HEAT INDEX
  TC     - TEMPERATURE IN CELSIUS
  VRB    - VARIABLE WIND DIRECTION
  N/A    - NOT AVAILABLE
  
      

Other recent Regional Weather Roundups

Wed Apr 1, 4:05am

Wed Apr 1, 3:04am

Wed Apr 1, 2:04am

Wed Apr 1, 1:04am

Wed Apr 1, 12:04am

Tue Mar 31, 11:04pm

Tue Mar 31, 10:04pm

Tue Mar 31, 9:04pm

Tue Mar 31, 8:04pm

Tue Mar 31, 7:04pm

Tue Mar 31, 6:04pm

Tue Mar 31, 4:04pm

Tue Mar 31, 3:04pm

Tue Mar 31, 1:04pm

Tue Mar 31, 12:05pm

Tue Mar 31, 11:04am

Tue Mar 31, 10:05am

Tue Mar 31, 9:04am

Tue Mar 31, 8:04am

Tue Mar 31, 7:05am

Tue Mar 31, 6:04am

Tue Mar 31, 5:04am

Tue Mar 31, 4:04am

Tue Mar 31, 3:04am

Tue Mar 31, 2:04am

Tue Mar 31, 1:04am

Tue Mar 31, 12:04am

Mon Mar 30, 11:04pm

Mon Mar 30, 10:04pm

Mon Mar 30, 9:05pm

Mon Mar 30, 8:04pm

Mon Mar 30, 7:04pm

Mon Mar 30, 6:04pm

Mon Mar 30, 5:05pm

Mon Mar 30, 4:04pm

Mon Mar 30, 3:04pm

Mon Mar 30, 2:04pm

Mon Mar 30, 1:04pm

Mon Mar 30, 12:04pm

Mon Mar 30, 11:04am

Mon Mar 30, 10:04am

Mon Mar 30, 9:04am

Mon Mar 30, 8:04am

Mon Mar 30, 7:04am

Mon Mar 30, 6:04am

Mon Mar 30, 5:04am

Mon Mar 30, 4:04am

Mon Mar 30, 3:05am

Mon Mar 30, 2:04am

Mon Mar 30, 1:04am

Mon Mar 30, 12:04am

Sun Mar 29, 11:04pm

Sun Mar 29, 10:05pm

Sun Mar 29, 9:04pm

Sun Mar 29, 8:04pm

Sun Mar 29, 7:04pm

Sun Mar 29, 6:04pm

Sun Mar 29, 5:05pm

Sun Mar 29, 4:04pm

Sun Mar 29, 3:04pm

Sun Mar 29, 2:04pm

Sun Mar 29, 1:05pm

Sun Mar 29, 12:04pm

Sun Mar 29, 11:04am

Sun Mar 29, 10:04am

Sun Mar 29, 9:04am

Sun Mar 29, 8:04am

Sun Mar 29, 7:04am

Sun Mar 29, 6:04am

Sun Mar 29, 5:04am

Meta data:

ID: c285d914-5a2f-4bbf-8a45-876360456e71
Link: https://api.weather.gov/products/c285d914-5a2f-4bbf-8a45-876360456e71